Weather in Novotroitsk

Russia / Omsk Oblast     55˚46′41″N   73˚03′30″E
temp.,
°C
wind,
m/s
gust,
m/s
humid.,
%
clouds,
%
prec.,
mm/h
press.,
hPa
HPBL,
m
17 january, sun
sun1700:00−10˚s51286100 0.0 1008324
03:00−9˚sw51190100 0.0 1005351
06:00−8˚wsw61392100 0.1 1005614
09:00−10˚wsw6139297 0.0 1007335
12:00−10˚wsw6149180 0.0 1009357
15:00−9˚sw613900 0.0 1009357
18:00−10˚ssw7168732 0.0 1008446
21:00−9˚sw8168684 0.0 1005772
18 january, mon
mon1800:00−9˚wsw8159092 0.1 1005911
03:00−10˚wsw71490100 0.1 1006677
06:00−13˚w71491100 0.1 1008572
09:00−17˚w71492100 0.0 1011414
12:00−17˚w6119398 0.0 1015411
15:00−17˚w489253 0.0 1017313
18:00−21˚wsw349726 0.0 101931
21:00−22˚sw34970 0.0 101941
19 january, tue
tue1900:00−23˚sw449633 0.0 101970
03:00−24˚sw34957 0.0 101859
06:00−24˚sw34964 0.0 101754
09:00−25˚wsw349529 0.0 101751
12:00−22˚w359458 0.0 1018186
15:00−20˚wnw249592 0.0 1018226
18:00−24˚nnw239652 0.0 101820
21:00−25˚nne339646 0.0 101940
20 january, wed
wed2000:00−24˚ne369673 0.0 1020175
03:00−26˚ne489698 0.0 1020171
06:00−26˚ne489299 0.0 1020236
09:00−25˚ene5891100 0.0 1020254
12:00−25˚ene5796100 0.3 1020252
15:00−24˚ene4698100 0.9 1020261
18:00−25˚ne3598100 1.1 1020182
21:00−26˚ne3498100 0.1 102196
21 january, thu
thu2100:00−27˚ne2298100 0.2 102119
03:00−29˚nne239889 0.0 102220
06:00−30˚nne239886 0.0 102219
09:00−31˚nne349853 0.0 102246
12:00−29˚ne349676 0.0 1021147
15:00−27˚ne3595100 0.0 1019226
18:00−28˚ne3697100 0.0 1018136
21:00−28˚ne3796100 0.0 1016192